Notices

What's New in latest Release from April 7th, 2021:

- Updated Glossary, including Speed of Maximum Gust, and Total Hourly Precipitation

- Updated national and regional climate services offices contacts and prices information

- Addition of station inventory lists for 1981-2010, 1971-2000, and 1961-1990 Normals.

If you haven't already, please take our survey and provide feedback about our website: https://eccc.sondage-survey.ca/f/LanguageSelection.aspx?s=442ca660-fcf1-47c0-95a9-59707d6fd709

Hourly Data Report for December 07, 2020

CARBERRY CS
MANITOBA
Current Station Operator: ECCC - MSC

49°54'20.900" N
99°21'26.800" W
383.50 m
5010547
71170
WZE

Download Data

Hourly Data (December 2020)
Hourly Data Report for December 7, 2020
TIME
LST
Temp Definition
°C
Dew Point Definition
°C
Rel Hum Definition
%
Precip. Amount Definition
mm

Wind Dir Definition
10's deg

Wind Spd Definition
km/h
Visibility Definition
km
Stn Press Definition
kPa
Hmdx Definition


Wind Chill Definition


Weather Definition


00:00 -4.5 -5.6 92 0.0 21 11   96.75   -9 LegendNANA
01:00 -3.0 -5.0 86 0.0 25 12   96.67   -7 LegendNANA
02:00 -3.2 -5.5 84 0.0 26 27   96.69   -10 LegendNANA
03:00 -3.7 -6.3 82 0.0 26 11   96.72   -8 LegendNANA
04:00 -4.1 -6.5 83 0.0 25 14   96.79   -9 LegendNANA
05:00 -4.9 -7.3 83 0.0 26 13   96.77   -10 LegendNANA
06:00 -4.7 -7.5 81 0.0 26 16   96.80   -10 LegendNANA
07:00 -4.7 -7.3 82 0.0 25 12   96.80   -9 LegendNANA
08:00 -4.4 -7.2 81 0.0 27 18   96.90   -10 LegendNANA
09:00 -4.0 -7.2 78 0.0 26 17   96.95   -10 LegendNANA
10:00 -2.0 -6.3 72 0.0 26 20   96.91   -8 LegendNANA
11:00 0.4 -5.3 65 0.0 26 17   96.91     LegendNANA
12:00 3.2 -4.4 57 0.0 26 14   96.87     LegendNANA
13:00 3.3 -4.6 56 0.0 26 17   96.85     LegendNANA
14:00 3.7 -4.1 57 0.0 24 11   96.83     LegendNANA
15:00 3.8 -4.4 55 0.0 26 17   96.83     LegendNANA
16:00 3.4 -4.5 56 0.0 25 15   96.85     LegendNANA
17:00 2.6 -4.9 57 0.0 23 9   96.78     LegendNANA
18:00 1.9 -3.2 69 0.0 24 8   96.75     LegendNANA
19:00 2.3 -2.8 69 0.0 23 14   96.72     LegendNANA
20:00 1.8 -3.8 66 0.0 25 13   96.70     LegendNANA
21:00 1.0 -3.8 71 0.0 23 11   96.60     LegendNANA
22:00 -0.4 -3.8 78 0.0 24 14   96.59   -5 LegendNANA
23:00 -0.9 -4.0 79 0.0 25 12   96.52   -5 LegendNANA

Notes on Data Quality.

Legend

  • E = Estimated
  • M = Missing
  • NA = Not Available*
  • [empty] = Indicates an unobserved value
Date modified: